When you browse on this site, cookies collect data to enhance your experience and personalize the content and advertising you see.
Visit our Privacy Policy to learn more. By continuing to use the site, you agree to this use of cookies and data.
  • In Hungary
  • List of Countries
  • For 7 days
  • Water Temperature
  • Satellite Maps
  • Weather Map
  • News
  • Weather Widgets
  • user-avatar
    Login

    Hourly Weather Gremyachiy

    Today, 23 January, Wednesday

    Time Temperature Precipitation Wind Pressure Humidity
    00:00 -22°C° 0 mm 3 mps 743 mmHg 98%
    01:00 -21°C° 0 mm 2 mps 743 mmHg 98%
    02:00 -21°C° 0 mm 2 mps 743 mmHg 98%
    03:00 -23°C° 0 mm 2 mps 743 mmHg 98%
    04:00 -24°C° 0 mm 2 mps 743 mmHg 98%
    05:00 -24°C° 0 mm 2 mps 743 mmHg 98%
    06:00 -25°C° 0 mm 2 mps 744 mmHg 98%
    07:00 -22°C° 0 mm 1 mps 744 mmHg 97%
    08:00 -22°C° 0 mm 1 mps 744 mmHg 96%
    09:00 -22°C° 0 mm 1 mps 745 mmHg 96%
    10:00 -20°C° 0 mm 0 mps 745 mmHg 93%
    11:00 -19°C° 0 mm 0 mps 746 mmHg 90%
    12:00 -17°C° 0 mm 0 mps 746 mmHg 87%
    13:00 -17°C° 0 mm 0 mps 746 mmHg 88%
    14:00 -17°C° 0 mm 0 mps 746 mmHg 89%
    15:00 -17°C° 0 mm 0 mps 746 mmHg 89%
    16:00 -18°C° 0 mm 0 mps 746 mmHg 89%
    17:00 -19°C° 0 mm 1 mps 746 mmHg 89%
    18:00 -20°C° 0 mm 1 mps 746 mmHg 89%
    19:00 -20°C° 0 mm 1 mps 747 mmHg 90%
    20:00 -23°C° 0 mm 2 mps 747 mmHg 90%
    21:00 -23°C° 0 mm 2 mps 747 mmHg 91%
    22:00 -21°C° 0 mm 2 mps 747 mmHg 92%
    23:00 -23°C° 0 mm 3 mps 747 mmHg 93%

    Tomorrow, 24 January, Thursday

    Time Temperature Precipitation Wind Pressure Humidity
    00:00 -23°C° 0 mm 3 mps 747 mmHg 94%
    01:00 -23°C° 0 mm 4 mps 746 mmHg 93%
    02:00 -23°C° 0 mm 4 mps 746 mmHg 93%
    03:00 -22°C° 0 mm 4 mps 746 mmHg 93%
    04:00 -21°C° 0.1 mm 5 mps 745 mmHg 93%
    05:00 -21°C° 0.1 mm 5 mps 745 mmHg 94%
    06:00 -21°C° 0.1 mm 6 mps 744 mmHg 94%
    07:00 -21°C° 0.7 mm 6 mps 744 mmHg 95%
    08:00 -20°C° 0.7 mm 7 mps 744 mmHg 95%
    09:00 -20°C° 0.7 mm 7 mps 743 mmHg 95%
    10:00 -19°C° 0.8 mm 8 mps 743 mmHg 94%
    11:00 -18°C° 0.8 mm 8 mps 742 mmHg 93%
    12:00 -18°C° 0.8 mm 8 mps 742 mmHg 92%
    13:00 -17°C° 0.5 mm 8 mps 741 mmHg 93%
    14:00 -15°C° 0.5 mm 7 mps 741 mmHg 93%
    15:00 -15°C° 0.5 mm 7 mps 740 mmHg 94%
    16:00 -14°C° 0.7 mm 6 mps 740 mmHg 94%
    17:00 -14°C° 0.7 mm 6 mps 739 mmHg 95%
    18:00 -13°C° 0.7 mm 5 mps 739 mmHg 95%
    19:00 -11°C° 0.6 mm 4 mps 739 mmHg 96%
    20:00 -11°C° 0.6 mm 4 mps 739 mmHg 96%
    21:00 -10°C° 0.6 mm 4 mps 739 mmHg 96%
    22:00 -9°C° 0.4 mm 3 mps 739 mmHg 96%
    23:00 -8°C° 0.4 mm 3 mps 739 mmHg 96%

    Day after tomorrow, 25 January, Friday

    Time Temperature Precipitation Wind Pressure Humidity
    00:00 -7°C° 0.4 mm 2 mps 739 mmHg 97%
    01:00 -7°C° 0.3 mm 2 mps 739 mmHg 97%
    02:00 -4°C° 0.3 mm 1 mps 739 mmHg 97%
    03:00 -4°C° 0.3 mm 1 mps 739 mmHg 97%
    04:00 -4°C° 0.1 mm 1 mps 739 mmHg 97%
    05:00 -6°C° 0.1 mm 2 mps 739 mmHg 97%
    06:00 -6°C° 0.1 mm 2 mps 739 mmHg 97%
    07:00 -7°C° 0.1 mm 2 mps 740 mmHg 96%
    08:00 -8°C° 0.1 mm 3 mps 740 mmHg 96%
    09:00 -9°C° 0.1 mm 4 mps 741 mmHg 96%
    10:00 -10°C° 0 mm 4 mps 741 mmHg 95%
    11:00 -10°C° 0 mm 4 mps 742 mmHg 95%
    12:00 -10°C° 0 mm 4 mps 742 mmHg 95%
    13:00 -10°C° 0 mm 4 mps 742 mmHg 95%
    14:00 -11°C° 0 mm 4 mps 743 mmHg 94%
    15:00 -12°C° 0 mm 4 mps 743 mmHg 94%
    16:00 -14°C° 0 mm 4 mps 743 mmHg 94%
    17:00 -15°C° 0 mm 4 mps 744 mmHg 94%
    18:00 -16°C° 0 mm 4 mps 744 mmHg 95%
    19:00 -16°C° 0 mm 4 mps 744 mmHg 95%
    20:00 -18°C° 0 mm 5 mps 745 mmHg 95%
    21:00 -18°C° 0 mm 5 mps 745 mmHg 95%
    22:00 -18°C° 0 mm 5 mps 745 mmHg 95%
    23:00 -19°C° 0 mm 5 mps 745 mmHg 95%

    26 January, Saturday

    Time Temperature Precipitation Wind Pressure Humidity
    00:00 -19°C° 0 mm 5 mps 745 mmHg 95%
    01:00 -19°C° 0 mm 5 mps 745 mmHg 95%
    02:00 -20°C° 0 mm 5 mps 745 mmHg 95%
    03:00 -20°C° 0 mm 5 mps 745 mmHg 95%
    04:00 -20°C° 0 mm 5 mps 745 mmHg 95%
    05:00 -20°C° 0 mm 5 mps 745 mmHg 95%
    06:00 -22°C° 0 mm 6 mps 745 mmHg 95%
    07:00 -22°C° 0 mm 6 mps 745 mmHg 95%
    08:00 -22°C° 0 mm 6 mps 745 mmHg 95%
    09:00 -23°C° 0 mm 6 mps 745 mmHg 95%
    10:00 -22°C° 0 mm 6 mps 745 mmHg 93%
    11:00 -21°C° 0 mm 6 mps 745 mmHg 92%
    12:00 -21°C° 0 mm 6 mps 745 mmHg 91%
    13:00 -21°C° 0 mm 6 mps 744 mmHg 91%
    14:00 -21°C° 0 mm 6 mps 744 mmHg 90%
    15:00 -20°C° 0 mm 6 mps 743 mmHg 89%
    16:00 -21°C° 0 mm 6 mps 743 mmHg 89%
    17:00 -22°C° 0 mm 6 mps 743 mmHg 90%
    18:00 -22°C° 0 mm 6 mps 743 mmHg 90%
    19:00 -22°C° 0 mm 6 mps 742 mmHg 90%
    20:00 -22°C° 0 mm 6 mps 742 mmHg 89%
    21:00 -22°C° 0 mm 6 mps 742 mmHg 89%
    22:00 -22°C° 0 mm 6 mps 741 mmHg 90%
    23:00 -22°C° 0 mm 6 mps 741 mmHg 91%

    27 January, Sunday

    Time Temperature Precipitation Wind Pressure Humidity
    00:00 -22°C° 0 mm 6 mps 741 mmHg 92%
    01:00 -20°C° 0 mm 5 mps 740 mmHg 94%
    02:00 -19°C° 0 mm 5 mps 740 mmHg 95%
    03:00 -17°C° 0 mm 4 mps 740 mmHg 96%
    04:00 -17°C° 0 mm 4 mps 740 mmHg 96%
    05:00 -16°C° 0 mm 4 mps 739 mmHg 96%
    06:00 -16°C° 0 mm 4 mps 739 mmHg 96%
    07:00 -16°C° 0 mm 4 mps 739 mmHg 96%
    08:00 -15°C° 0 mm 4 mps 739 mmHg 96%
    09:00 -15°C° 0 mm 4 mps 739 mmHg 96%
    10:00 -15°C° 0 mm 4 mps 738 mmHg 95%
    11:00 -14°C° 0 mm 4 mps 738 mmHg 95%
    12:00 -12°C° 0 mm 4 mps 738 mmHg 94%
    13:00 -12°C° 0 mm 4 mps 738 mmHg 94%
    14:00 -12°C° 0 mm 3 mps 738 mmHg 94%
    15:00 -12°C° 0 mm 3 mps 738 mmHg 94%
    16:00 -13°C° 0 mm 3 mps 738 mmHg 95%
    17:00 -13°C° 0 mm 3 mps 738 mmHg 96%
    18:00 -14°C° 0 mm 3 mps 738 mmHg 97%
    19:00 -14°C° 0 mm 3 mps 738 mmHg 97%
    20:00 -13°C° 0 mm 3 mps 738 mmHg 97%
    21:00 -12°C° 0 mm 3 mps 739 mmHg 97%
    22:00 -10°C° 0 mm 2 mps 739 mmHg 97%
    23:00 -10°C° 0 mm 2 mps 739 mmHg 97%

    28 January, Monday

    Time Temperature Precipitation Wind Pressure Humidity
    00:00 -10°C° 0 mm 2 mps 739 mmHg 97%
    01:00 -10°C° 0 mm 2 mps 739 mmHg 97%
    02:00 -10°C° 0 mm 2 mps 739 mmHg 97%
    03:00 -10°C° 0 mm 2 mps 739 mmHg 97%
    04:00 -10°C° 0 mm 2 mps 740 mmHg 97%
    05:00 -10°C° 0 mm 2 mps 740 mmHg 97%
    06:00 -10°C° 0 mm 2 mps 740 mmHg 97%
    07:00 -10°C° 0 mm 2 mps 740 mmHg 97%
    08:00 -12°C° 0 mm 3 mps 740 mmHg 96%
    09:00 -12°C° 0 mm 3 mps 741 mmHg 96%
    10:00 -10°C° 0 mm 3 mps 741 mmHg 96%
    11:00 -10°C° 0 mm 3 mps 741 mmHg 95%
    12:00 -9°C° 0 mm 3 mps 741 mmHg 94%
    13:00 -9°C° 0 mm 3 mps 741 mmHg 94%
    14:00 -9°C° 0 mm 3 mps 741 mmHg 94%
    15:00 -9°C° 0 mm 3 mps 741 mmHg 94%
    16:00 -8°C° 0 mm 2 mps 741 mmHg 94%
    17:00 -9°C° 0 mm 2 mps 742 mmHg 95%
    18:00 -10°C° 0 mm 2 mps 742 mmHg 96%
    19:00 -10°C° 0 mm 2 mps 742 mmHg 96%
    20:00 -10°C° 0 mm 2 mps 743 mmHg 96%
    21:00 -10°C° 0 mm 2 mps 743 mmHg 97%
    22:00 -12°C° 0 mm 2 mps 743 mmHg 97%
    23:00 -12°C° 0 mm 2 mps 743 mmHg 97%
    Show more